DIWATA-2B

Last updated on Thu Oct 30 2025 00:03:10 GMT+0000 (Coordinated Universal Time)

1 43678U 18084H 25302.53695580 .00003559 00000+0 29787-3 0 9999 2 43678 98.1105 124.2202 0007891 157.3638 202.7933 14.99123716381646
UTC large
Height (km)
Speed (km/s)
/
Latitude / Longitude
Inclination (degrees)
Orbital Period (minutes)
Azimuth
Elevation
Range (km)
Doppler Factor

Next 0 passes for location: London (51.5072 / 0.1276)

Sorry there are no passes over London.